Tracking 17694 objects as of 27-May-2016
HD Live streaming from Space Station
objects crossing your sky now

ARIANE 44L+3 R/B

Track ARIANE 44L+3 R/B now!


NORAD ID: 23866
Int'l Code: 1996-030C
Perigee: 292.4 km
Apogee: 30,884.1 km
Inclination: 4.5 °
Period: 539.7 minutes
Semi major axis: 21959 km
RCS: 20.3809 m2 (large)
Launch date: May 16, 1996
Source: France (FR)
Launch site: FRENCH GUIANA (FRGUI)

Note: This is a ROCKET BODY
Your satellite tracking list
Your tracking list is empty





NASA's NSSDC Master Catalog

Two Line Element Set (TLE):
1 23866U 96030C   16147.10536157  .00001387  00000-0  62173-3 0  9991
2 23866   4.5327   4.0528 6965550 275.8855  14.9584  2.66794480180672
Source of the keplerian elements: AFSPC

N2YO: 694